Hat Yai, Thailand

6:24 AM ICT on February 20, 2017 (GMT +0700)
Hat Yai International

Weather History for VTSS - August, 2013

Change the Weather History Date:

Friday, August 9, 2013

  Actual Average Record
Temperature  
Mean Temperature 80 °F -  
Max Temperature 88 °F 88 °F 97 °F (2014)
Min Temperature 71 °F 74 °F 71 °F (2013)
Cooling Degree Days 14    
Growing Degree Days 30 (Base 50)    
Moisture  
Dew Point 72 °F    
Average Humidity 81    
Maximum Humidity 94    
Minimum Humidity 52    
Precipitation  
Precipitation 0.01 in - - ()
Sea Level Pressure  
Sea Level Pressure 29.80 in    
Wind  
Wind Speed 3 mph ()    
Max Wind Speed 10 mph    
Max Gust Speed -    
Visibility 5.8 miles    
Events      
Averages and records for this station are not official NWS values.
T = Trace of Precipitation, MM = Missing Value Source: Averaged Metar Reports

Daily Weather History Graph

Daily Weather History Graph

Search for Another Location

Airport or City:

Trip Planner

Search our weather history database for the weather conditions in past years. The results will help you decide how hot, cold, wet, or windy it might be!

Date:

Astronomy

Aug. 09, 2013 Rise Set
Actual Time 6:12 AM ICT 6:35 PM ICT
Civil Twilight 5:50 AM ICT 6:56 PM ICT
Nautical Twilight 5:25 AM ICT 7:22 PM ICT
Astronomical Twilight 4:59 AM ICT 7:47 PM ICT
Moon 7:48 AM ICT (8/9) 8:12 PM ICT (8/9)
Length of Visible Light 13h 06m
Length of Day
12h 22m
Waxing Crescent, 5% of the Moon is Illuminated
Aug 9
Waxing Crescent
Aug 14
First Quarter
Aug 21
Full
Aug 28
Last Quarter
Sep 5
New

Hourly Weather History & Observations

Time (ICT) Temp. Heat Index Dew Point Humidity Pressure Visibility Wind Dir Wind Speed Gust Speed Precip Events Conditions
12:00 AM 73.4 °F - 71.6 °F 94% 29.83 in 6.2 mi Calm Calm - N/A   Overcast
12:30 AM 73.4 °F - 71.6 °F 94% 29.83 in 5.6 mi Calm Calm - N/A   Overcast
1:00 AM 72 °F - 70 °F 90% 29.83 in 5 mi Calm Calm - -   Mist
1:00 AM 71.6 °F - 69.8 °F 94% 29.83 in 5.0 mi Calm Calm - N/A   Overcast
1:30 AM 71.6 °F - 69.8 °F 94% 29.83 in 5.0 mi Calm Calm - N/A   Overcast
2:00 AM 71.6 °F - 69.8 °F 94% 29.80 in 5.0 mi Calm Calm - N/A   Overcast
2:30 AM 71.6 °F - 69.8 °F 94% 29.80 in 5.0 mi Calm Calm - N/A   Overcast
3:30 AM 71.6 °F - 69.8 °F 94% 29.77 in 3.7 mi Calm Calm - N/A   Overcast
4:00 AM 71.6 °F - 69.8 °F 94% 29.77 in 3.1 mi ESE 2.3 mph - N/A   Mostly Cloudy
4:30 AM 71.6 °F - 69.8 °F 94% 29.77 in 3.1 mi SE 2.3 mph - N/A   Mostly Cloudy
5:00 AM 71.6 °F - 69.8 °F 94% 29.77 in 4.3 mi Calm Calm - N/A   Mostly Cloudy
5:30 AM 73.4 °F - 71.6 °F 94% 29.80 in 4.3 mi ESE 2.3 mph - N/A   Mostly Cloudy
6:00 AM 73.4 °F - 71.6 °F 94% 29.80 in 5.6 mi SE 3.5 mph - N/A   Overcast
6:30 AM 73.4 °F - 71.6 °F 94% 29.80 in 5.6 mi West 3.5 mph - N/A   Overcast
7:00 AM 73.4 °F - 71.6 °F 94% 29.83 in 6.2 mi West 3.5 mph - N/A   Mostly Cloudy
7:30 AM 73.4 °F - 71.6 °F 94% 29.83 in 6.2 mi SSW 3.5 mph - N/A   Mostly Cloudy
8:00 AM 73.4 °F - 71.6 °F 94% 29.83 in 6.2 mi South 6.9 mph - N/A   Mostly Cloudy
8:30 AM 77.0 °F - 73.4 °F 89% 29.86 in 6.2 mi SSW 4.6 mph - N/A   Mostly Cloudy
9:00 AM 77.0 °F - 71.6 °F 83% 29.83 in 6.2 mi SSW 4.6 mph - N/A   Mostly Cloudy
9:30 AM 78.8 °F - 71.6 °F 78% 29.83 in 6.2 mi SSW 3.5 mph - N/A   Mostly Cloudy
10:00 AM 80.6 °F 84.6 °F 71.6 °F 74% 29.86 in 6.2 mi SSW 3.5 mph - N/A   Mostly Cloudy
10:30 AM 80.6 °F 85.4 °F 73.4 °F 79% 29.83 in 6.2 mi SW 8.1 mph - N/A   Mostly Cloudy
11:00 AM 84.2 °F 92.3 °F 75.2 °F 74% 29.83 in 6.2 mi SSW 5.8 mph - N/A   Mostly Cloudy
11:30 AM 84.2 °F 90.9 °F 73.4 °F 70% 29.83 in 6.2 mi SSW 6.9 mph - N/A   Mostly Cloudy
12:00 PM 84.2 °F 90.9 °F 73.4 °F 70% 29.80 in 6.2 mi SSW 6.9 mph - N/A   Mostly Cloudy
12:30 PM 87.8 °F 95.6 °F 73.4 °F 62% 29.80 in 6.2 mi South 5.8 mph - N/A   Mostly Cloudy
1:00 PM 87 °F - 72 °F 52% 29.80 in 6 mi SSE 8.1 mph - -   Partly Cloudy
1:00 PM 87.8 °F 93.8 °F 71.6 °F 58% 29.77 in 6.2 mi SSE 8.1 mph - N/A   Mostly Cloudy
1:30 PM 87.8 °F 95.6 °F 73.4 °F 62% 29.77 in 6.2 mi SSW 5.8 mph - N/A   Mostly Cloudy
2:00 PM 89.6 °F 96.2 °F 71.6 °F 55% 29.77 in 6.2 mi SSW 8.1 mph - N/A   Mostly Cloudy
2:30 PM 87.8 °F 92.6 °F 69.8 °F 55% 29.77 in 6.2 mi SW 10.4 mph - N/A   Mostly Cloudy
3:00 PM 87.8 °F 93.8 °F 71.6 °F 58% 29.77 in 6.2 mi SW 6.9 mph - N/A   Mostly Cloudy
3:30 PM 87.8 °F 93.8 °F 71.6 °F 58% 29.74 in 6.2 mi SW 6.9 mph - N/A   Mostly Cloudy
4:00 PM 87.8 °F 95.6 °F 73.4 °F 62% 29.74 in 6.2 mi WSW 6.9 mph - N/A   Mostly Cloudy
4:30 PM 86.0 °F 93.4 °F 73.4 °F 66% 29.74 in 6.2 mi SW 6.9 mph - N/A   Mostly Cloudy
5:00 PM 86.0 °F 93.4 °F 73.4 °F 66% 29.74 in 6.2 mi WSW 6.9 mph - N/A   Mostly Cloudy
5:30 PM 86.0 °F 93.4 °F 73.4 °F 66% 29.74 in 6.2 mi WSW 6.9 mph - N/A   Mostly Cloudy
6:00 PM 84.2 °F 89.6 °F 71.6 °F 66% 29.74 in 6.2 mi SW 6.9 mph - N/A   Mostly Cloudy
6:30 PM 82.4 °F 87.2 °F 71.6 °F 70% 29.74 in 6.2 mi SW 3.5 mph - N/A   Mostly Cloudy
7:00 PM 80 °F - 72 °F 70% 29.77 in 6 mi Calm Calm - -   Scattered Clouds
7:00 PM 80.6 °F 84.6 °F 71.6 °F 74% 29.77 in 6.2 mi Calm Calm - N/A   Mostly Cloudy
7:30 PM 77.0 °F - 73.4 °F 89% 29.77 in 6.2 mi Calm Calm - N/A   Mostly Cloudy
8:00 PM 77.0 °F - 73.4 °F 89% 29.77 in 6.2 mi Calm Calm - N/A   Mostly Cloudy
8:30 PM 77.0 °F - 73.4 °F 89% 29.80 in 6.2 mi Calm Calm - N/A   Mostly Cloudy
9:00 PM 75.2 °F - 73.4 °F 94% 29.80 in 6.2 mi SE 2.3 mph - N/A   Mostly Cloudy
9:30 PM 75.2 °F - 73.4 °F 94% 29.80 in 6.2 mi SSE 3.5 mph - N/A   Mostly Cloudy
10:00 PM 75.2 °F - 73.4 °F 94% 29.83 in 6.2 mi South 2.3 mph - N/A   Mostly Cloudy
10:30 PM 75.2 °F - 71.6 °F 89% 29.83 in 6.2 mi Calm Calm - N/A   Mostly Cloudy
11:00 PM 75.2 °F - 71.6 °F 89% 29.83 in 6.2 mi Calm Calm - N/A   Mostly Cloudy
11:30 PM 73.4 °F - 71.6 °F 94% 29.86 in 6.2 mi Calm Calm - N/A   Mostly Cloudy